Regional Weather Roundup
Issued by NWS Grand Forks, ND

Home | Current Version | Previous Version | Graphics & Text | Print | Product List | Glossary On
Versions: 1 2 3 4 5 6 7 8 9 10 11 12 13 14 15 16 17 18 19 20 21 22 23 24 25 26 27 28 29 30 31 32 33 34 35 36 37 38 39 40 41 42 43 44 45 46 47 48 49 50
000
ASUS43 KFGF 071910
RWRFGF
PRAIRIE TO PINES  WEATHER ROUNDUP
NATIONAL WEATHER SERVICE EASTERN NORTH DAKOTA/GRAND FORKS ND
100 PM CST WED DEC 07 2016

 **SATELLITE DATA USED TO AUGMENT SKY COVER AT AUTOMATED STATIONS**
 *****  WEATHER ACROSS EASTERN NORTH DAKOTA  *****

CITY           SKY/WX    TMP DP  RH WIND       PRES   REMARKS
GRAND FORKS    LGT SNOW  19  13  77 NW24G32   29.97R BLWGSNOWWCI   2
GRAND FRKS AFB LGT SNOW  18  12  79 NW20      29.98R WCI   1
DEVILS LAKE    SNOW      11   8  88 NW28G36   30.05R VSB 1/2 WCI -10
FARGO          LGT SNOW  15   8  73 W28G36    30.04S WCI  -5
WAHPETON ARPT  CLOUDY    16   9  73 W26G36    30.08S WCI  -3
$$

 ***** WEATHER ACROSS CENTRAL AND WESTERN NORTH DAKOTA  *****

CITY           SKY/WX    TMP DP  RH WIND       PRES   REMARKS
BISMARCK       CLOUDY     5  -1  76 NW26G37   30.28S WCI -18
MINOT          LGT SNOW   6   1  80 W37G45    30.22R VSB 3/4 WCI -20
JAMESTOWN      LGT SNOW   9   5  84 NW31G43   30.10R VSB 3/4 WCI -14
MINOT AFB      HVY SNOW   4   0  82 NW37G45   30.20R VSB 1/4 WCI -22
GARRISON         N/A      2  -3  80 NW37G47   30.23R WCI -25
WILLISTON      CLOUDY     0  -9  65 W15G25    30.43R WCI -19
DICKINSON      BLWGSNOW   0  -7  72 NW33G40   30.28S VSB 1   WCI -27
HETTINGER      CLOUDY     3  -3  76 NW26G38   30.31S HAZE    WCI -21
$$

 *****  OTHER AIRPORT OBSERVATIONS IN OUR AREA  *****

CITY           SKY/WX    TMP DP  RH WIND       PRES   REMARKS
WALHALLA       LGT SNOW  18  18 100 NW23G31   29.98R WCI   0
GRAFTON AIRPOR CLOUDY    19  16  86 NW24G32   29.98R FOG     WCI   2
VALLEY CITY AR LGT SNOW   9   9 100 NW35G44   30.08S VSB 3/4 WCI -15
CANDO          LGT SNOW  14  10  85 NW26G33   30.09R VSB 3/4 WCI  -6
CAVALIER APRT  LGT SNOW  19  16  86 NW24G31   29.96R VSB 1   WCI   2
GWINNER        CLOUDY    14   9  79 W25G33    30.12F WCI  -5
SHEYENNE NWR     N/A     14   5  67 NW21      29.95S WCI  -4
ROLLA          HVY SNOW  10   9  92 NW37G43   30.05R VSB 1/4 WCI -14
 ***** THE ABOVE OBSERVATIONS ARE NON NWS ARE NOT QUALITY
       CONTROLLED AND MAY MIS-REPORT RAIN FOR SNOW...
$$

  *****  WEATHER ACROSS NORTHERN MINNESOTA  *****

CITY           SKY/WX    TMP DP  RH WIND       PRES   REMARKS
FLAG ISLAND    LGT SNOW  25  21  86 NW22      29.77R WCI  10
WARROAD        LGT SNOW  25  21  86 NW15      29.80R WCI  12
ROSEAU         LGT SNOW  27  21  80 NW13      29.82R WCI  16
HALLOCK        LGT SNOW  21  19  93 NW24G33   29.91R VSB 1   WCI   4
THF RVR FALLS  LGT SNOW  19  15  84 W18       29.90R FOG     WCI   4
BAUDETTE       LGT SNOW  24  20  84 NW16      29.74S VSB 1   WCI  11
WASKISH        FLURRIES  21  19  93 W17G24    29.78S WCI   7
CROOKSTON      LGT SNOW  18  16  93 NW23      29.96R WCI   0
$$
  *****  WEATHER ACROSS CENTRAL AND WEST MINNESOTA  *****

CITY           SKY/WX    TMP DP  RH WIND       PRES   REMARKS
FOSSTON        LGT SNOW  16  10  79 W18G25    29.91R WCI  -1
BEMIDJI        LGT SNOW  16  12  85 W23G31    29.85R WCI  -3
PARK RAPIDS    LGT SNOW  16   7  67 W21G30    29.90S WCI  -1
ELBOW LAKE     LGT SNOW  13   9  85 NW22G28   30.07R WCI  -6
WADENA         LGT SNOW  12   7  79 W12G24    29.96R WCI  -2
DETROIT LAKES  LGT SNOW  14  10  85 W17G25    29.98R WCI  -3
MOORHEAD       MIX PCPN  14  10  85 W26       30.04S VSB 3/4 WCI  -6
FERGUS FALLS   LGT SNOW  12   9  85 NW26      30.10S VSB 3/4 WCI  -8
MORRIS MN      LGT SNOW  16  10  79 W25G35    30.07S WCI  -3
STAPLES        LGT SNOW  14   9  79 W18G24    29.96R WCI  -3
$$
  *****  WEATHER ELSEWHERE ACROSS MINNESOTA  *****

CITY           SKY/WX    TMP DP  RH WIND       PRES   REMARKS
DULUTH         LGT SNOW  18  11  74 W22G36    29.78R BLWGSNOWWCI   1
INTRNTL FALLS  LGT SNOW  25  21  85 W12       29.69S FOG     WCI  14
ELY            CLOUDY    21  18  86 W17       29.67S WCI   7
CLOQUET        FLURRIES  18   9  68 SW17G26   29.82R WCI   2
WHEATON        FLURRIES  16  10  79 W26G35    30.12S WCI  -3
BRAINERD       CLOUDY    16   8  71 W21G26    29.94R WCI  -1
HIBBING        MIX PCPN  18  13  80 W10G21    29.76R WCI   6
ALEXANDRIA     LGT SNOW  13   7  77 W23G35    30.02S WCI  -6
SAINT CLOUD    FLURRIES  17   8  67 W24G32    30.01S WCI  -1
MINNEAPOLIS    FLURRIES  20   8  60 W21G28    30.04S WCI   4
$$

  *****  WEATHER ACROSS SOUTH DAKOTA  *****

CITY           SKY/WX    TMP DP  RH WIND       PRES   REMARKS
SIOUX FALLS    PTSUNNY   18   6  59 W25G36    30.21F WCI   0
BROOKINGS      FLURRIES  14   6  70 NW26G35   30.15S WCI  -6
WATERTOWN      CLOUDY    12   5  73 W25G35    30.13S HAZE    WCI  -8
HURON          SUNNY     17   4  56 NW26G39   30.26F WCI  -2
SISSETON         N/A     16   6  65 NW36G41   30.10F WCI  -6
ABERDEEN       LGT SNOW  13   3  64 W24G32    30.22R WCI  -7
MITCHELL       SUNNY     19   5  54 W25G32    30.30S WCI   1
PIERRE         CLOUDY    12   4  70 NW31      30.33S WCI -10
MOBRIDGE       MOSUNNY   10  -1  61 NW29G40   30.24S WCI -12
RAPID CITY     CLOUDY    14  -4  44 NW20G31   30.33S WCI  -3
$$

  *****  SOME WEATHER IN NEARBY STATES *****

CITY           SKY/WX    TMP DP  RH WIND       PRES   REMARKS
GLASGOW MT     MOSUNNY    3  -7  63 NW23G31   30.49S WCI -19
GREAT FALLS MT CLOUDY     1  -7  68 W8        30.48S WCI -13
CHEYENNE WY    PTSUNNY    5  -4  66 N12       30.12F WCI -11
SCOTTSBLUFF NE CLOUDY    14   1  56 NW15G24   30.30S WCI  -1
OMAHA NE       CLOUDY    23   8  52 NW15      30.32S WCI  10
DES MOINES IA  CLOUDY    25  10  53 NW15      30.23S WCI  13
DAVENPORT IA   MOSUNNY   26  19  74 W15       30.15S WCI  14
CHICAGO IL     PTSUNNY   27  18  69 W16       30.07F WCI  15
EAU CLAIRE WI  FLURRIES  20  12  71 W20G29    29.97S WCI   4
LA CROSSE WI   CLOUDY    23  12  62 W14       30.07S WCI  11
$$

  *****  SOME NATIONAL WEATHER *****

CITY           SKY/WX    TMP DP  RH WIND       PRES   REMARKS
LA GUARDIA NY  CLOUDY    46  39  76 VRB3      29.97R
RALEIGH NC     MOSUNNY   58  39  49 VRB5      30.02F
ATLANTA GA     MOSUNNY   58  44  60 SW10      30.02F
NEW ORLEANS LA CLOUDY    62  57  83 VRB6      30.08F
OKLAHOMA CITY  CLOUDY    38  23  55 N10       30.14F
ALBUQUERQUE NM MOSUNNY   44  21  40 N13       30.04F
SALT LAKE CITY PTSUNNY   27  13  55 MISG      30.28S
LOS ANGELES CA PTSUNNY   61  50  67 E6        30.11F
BOISE ID       SUNNY     23  13  65 SE8       30.38R WCI  14
SEATTLE WA     MOSUNNY   33  24  69 N9        30.41S
$$

*** WEATHER ACROSS MANITOBA...SASKATCHEWAN AND ONTARIO ***
                ***ONTARIO***

CITY           SKY/WX    TMP DP  RH WIND       PRES   REMARKS
GERALDTON      LGT SNOW  23  19  86 SW10      29.49R WCI  12
THUNDER BAY    LGT SNOW  28  23  80 W13       29.59S WCI  18
SIOUX LOOKOUT  LGT SNOW  21  18  86 N8G18     29.64R VSB 1   WCI  12
TORONTO        PTSUNNY   36  23  60 W18       29.93S
BIG TROUT LK   LGT SNOW  23  21  93 N9G17     29.80R WCI  13
PICKLE LAKE    LGT SNOW  21  18  86 N9G18     29.62R DRFTSNOWWCI  11
DRYDEN         LGT SNOW  21  18  86 N10       29.66R WCI  10
KENORA         LGT SNOW  23  19  86 N10G18    29.74R WCI  12
$$
                *** MANITOBA***

CITY           SKY/WX    TMP DP  RH WIND       PRES   REMARKS
BRANDON        LGT SNOW  14   9  79 NW25G32   30.12R BLWGSNOWWCI  -5
DAUPHIN        LGT SNOW  18  14  86 N16G23    30.18R WCI   3
ISLAND LAKE    FLURRIES  21  18  86 N9G23     30.00R WCI  11
PILOT MOUND      N/A     12  10  92 NW29G39     N/A  WCI  -9
THE PAS        PTSUNNY   12   5  73 N15G22    30.32R WCI  -4
THOMPSON       LGT SNOW   9   3  78 N14G22    30.27R WCI  -8
WINNIPEG       LGT SNOW  23  19  86 N22       29.95R BLWGSNOWWCI   8
LYNN LAKE      FLURRIES   0  -4  85 N12G17    30.40R WCI -18
CHURCHILL      SNOW       7   5  92 NW28G37   30.29S VSB 1/4 WCI -16
GILLAM         LGT SNOW   9   5  85 N18G28    30.21R DRFTSNOWWCI -10
$$
                ***SASKATCHEWAN***

CITY           SKY/WX    TMP DP  RH WIND       PRES   REMARKS
ESTEVAN        SNOW       1  -2  85 NW31      30.32R VSB 1/2 WCI -24
KINDERSLEY     CRYSTALS  -2  -9  71 NW14G21   30.51R WCI -21
LLOYDMINSTER   FLURRIES  -4  -9  77 NW14      30.54R WCI -24
PRINCE ALBERT  FLURRIES   7   0  72 N15G21    30.46R WCI -11
REGINA         CLOUDY     3  -4  72 NW23      30.39S BLWGSNOWWCI -19
YORKTON        CLOUDY    10   5  79 NW21G28   30.27R WCI  -9
N. BATTLEFORD  MOSUNNY    3  -4  72 NW14G20   30.54S WCI -15
LA RONGE       MOSUNNY    0  -8  71 NW9       30.51R WCI -16
SASKATOON      MOSUNNY    5  -4  66 NW16      30.50R WCI -14
SWIFT CURRENT  MOSUNNY   -6  -9  84 NW22      30.42S WCI -31
$$
NOTE: THESE ARE AUTOMATED STATIONS WITH LIMITED QUALITY CONTROL
      "FAIR" INDICATES FEW OR NO CLOUDS BELOW 12,000 FEET WITH NO
      SIGNIFICANT WEATHER AND/OR OBSTRUCTIONS TO VISIBILITY.
      SKY/WX - SKY CONDITION AND SIGNIFICANT WEATHER.
      TMP - AIR TEMPERATURE.    DP   - DEWPOINT TEMPERATURE.
      RH  - RELATIVE HUMIDITY.  PRES - PRESSURE.
      HX  - HEAT INDEX.         WCI  - WIND CHILL INDEX.
$




USA.gov is the U.S. government's official web portal to all federal, state and local government web resources and services.